Location: Archamps
(46.1365°N, 6.1329°E)
Time: 06:54:37
(UTC+00:00)

ATLAS 5 CENTAUR R/B - Pass Details

Date: 28 January 2023
Orbit: 460 x 1178 km, 63.3° (Epoch: 19 March)

Event Time Altitude Azimuth Distance (km) Brightness Sun altitude
Rises 18:57:31 0° 293° (WNW) 2,631 5.9 -24.8°
Reaches altitude 10° 19:01:35 10° 336° (NNW) 1,886 4.3 -25.5°
Maximum altitude 19:02:23 10° 347° (NNW) 1,890 4.2 -25.7°
Enters shadow 19:03:06 10° 357° (N) 1,942 4.1 -25.8°
